Flag for Norway Weather past 2 weeks in Fevik, Norway

Now
60 °F

Cool.


Feels Like: 59 °F
Forecast: 61 / 75 °F
Wind: 7 mph from Southwest

Location: Torungen Fyr

Current Time: Aug 1, 2014 at 8:39:16 AM

Latest Report: Aug 1, 2014 at 8:00 AM


Visibility: N/A

Pressure: 29.80 "Hg

Humidity: 87%

Dew point: 56 °F

Location of FevikLocation

Historic Weather in Fevik — Graph

°F

Fevik temperature yesterday

Maximum temperature yesterday: 70 °F (at 11:00 AM)
Minimum temperature yesterday: 59 °F (at 5:00 AM)
Average temperature yesterday: 63 °F

Past Weeks' High & Low Weather Summary

 TemperatureHumidityPressure
High77 °F (Jul 24, 4:00 PM)94% (Jul 28, 2:00 AM)30.30 "Hg (Jul 28, 2:00 AM)
Low57 °F (Jul 19, 5:00 AM)48% (Jul 21, 10:00 PM)29.67 "Hg (Jul 30, 5:00 PM)
Average68 °F77%30.02 "Hg
* Reported Jul 17 7:00 AM — Aug 1 7:00 AM, Fevik, Weather by CustomWeather, © 2014

Note: Actual official high and low records may vary slightly from our data, if they occured in-between our weather recording intervals... More about our weather records

Advertising

Fevik weather history for previous 24 hours

 ConditionsComfort  
Time TempWeatherWind HumidityBarometerVisibility
7:00 AM
Aug 1
59 °FCool.6 mph89%29.79 "HgN/A
6:00 AM59 °FCool.7 mph93%29.78 "HgN/A
5:00 AM60 °FCool.7 mph92%29.78 "HgN/A
4:00 AM60 °FCool.6 mph91%29.78 "HgN/A
3:00 AM60 °FCool.7 mph88%29.77 "HgN/A
2:00 AM61 °FCool.6 mph85%29.77 "HgN/A
1:00 AM62 °FCool.6 mph83%29.77 "HgN/A
12:00 AM62 °FCool.6 mph80%29.77 "HgN/A
11:00 PM
Jul 31
62 °FCool.9 mph87%29.77 "HgN/A
10:00 PM61 °FCool.12 mph87%29.76 "HgN/A
9:00 PM62 °FCool.12 mph85%29.75 "HgN/A
8:00 PM62 °FCool.13 mph80%29.75 "HgN/A
7:00 PM64 °FMild.12 mph74%29.75 "HgN/A
6:00 PM64 °FMild.16 mph77%29.75 "HgN/A
5:00 PM65 °FMild.15 mph76%29.74 "HgN/A
4:00 PM67 °FMild.9 mph66%29.74 "HgN/A
3:00 PM64 °FMild.15 mph77%29.74 "HgN/A
2:00 PM64 °FMild.15 mph76%29.73 "HgN/A
1:00 PM64 °FMild.12 mph82%29.73 "HgN/A
12:00 PM65 °FMild.12 mph74%29.73 "HgN/A
11:00 AM70 °FMild.7 mph55%29.72 "HgN/A
10:00 AM67 °FMild.5 mph61%29.72 "HgN/A
9:00 AM64 °FMild.5 mph69%29.71 "HgN/A
8:00 AM61 °FCool.6 mph80%29.71 "HgN/A
Weather by CustomWeather, © 2014

See weather overviewHow to use our weather pages